Date String (YYYY-MM-DD hh:mm:ss) UTC,Instrument flags,Ambient pressure (hPa),Sample flow (lpm),Bypass flow (lpm),Sample temperature (°C),Ambient temperature (°C),ASC tube jacket temperature (°C),LED temperature (°C),Box temperature (°C),Sample RH (%),Span deviation,Mass concentration (μg/m³),Mass concentration (μg/m³),Mass concentration (μg/m³)
DateTimeUTC,F1_M11,P_M11,Q1_M11,Q2_M11,T1_M11,T2_M11,T3_M11,T4_M11,T5_M11,U1_M11,ZSPAN_M11,X2_M11,X0_M11,X1_M11
2023-03-04 15:00:00,,0821.8,5.01,0.00,22.3,21.1,00.0,31.0,24.0,15.7,-001.7,0010.11,0012.16,0009.95
2023-03-04 15:01:00,,0821.8,5.01,0.00,22.3,21.0,00.0,31.0,24.0,15.8,-001.7,0010.12,0012.20,0009.95
2023-03-04 15:02:00,,0821.8,5.01,0.00,22.3,20.8,00.0,31.0,24.0,15.9,-001.7,0010.15,0012.24,0009.97
2023-03-04 15:03:00,,0821.8,5.01,0.00,22.3,20.7,00.0,31.0,23.9,15.9,-001.7,0010.19,0012.30,0010.01
2023-03-04 15:04:00,,0821.8,5.01,0.00,22.2,20.6,00.0,31.0,23.8,15.9,-001.7,0010.22,0012.20,0010.03
2023-03-04 15:05:00,,0821.9,5.00,0.00,22.2,20.5,00.0,31.0,23.9,16.0,-001.8,0010.24,0012.20,0010.05
2023-03-04 15:06:00,,0821.8,5.00,0.00,22.2,20.5,00.0,31.0,23.9,16.1,-002.1,0010.27,0012.26,0010.07
2023-03-04 15:07:00,,0821.8,5.00,0.00,22.2,20.5,00.0,31.0,23.9,16.2,-002.1,0010.29,0012.20,0010.09
2023-03-04 15:08:00,,0821.7,5.00,0.00,22.2,20.4,00.0,31.0,23.8,16.2,-002.2,0010.29,0012.19,0010.11
2023-03-04 15:09:00,,0821.8,5.00,0.00,22.2,20.4,00.0,31.0,23.8,16.3,-002.3,0010.34,0012.28,0010.13
2023-03-04 15:10:00,,0821.8,5.00,0.00,22.1,20.4,00.0,30.9,23.8,16.3,-002.2,0010.40,0012.43,0010.17
2023-03-04 15:11:00,,0821.8,5.00,0.00,22.1,20.4,00.0,30.9,23.8,16.4,-002.1,0010.44,0012.49,0010.21
2023-03-04 15:12:00,,0821.8,5.00,0.00,22.1,20.8,00.0,30.9,23.9,16.4,-002.2,0010.48,0012.62,0010.24
2023-03-04 15:13:00,,0821.8,4.96,0.00,22.2,22.3,00.0,30.9,24.1,16.3,-002.3,0010.53,0012.98,0010.28
2023-03-04 15:14:00,,0821.8,5.05,0.00,22.3,23.1,00.0,31.0,24.3,16.3,-002.1,0010.60,0013.14,0010.32
2023-03-04 15:15:00,,0821.8,5.01,0.00,22.4,22.7,00.0,31.0,24.3,16.2,-001.9,0010.66,0013.27,0010.36
2023-03-04 15:16:00,,0821.9,4.99,0.00,22.4,22.3,00.0,31.0,24.3,16.3,-002.0,0010.70,0013.34,0010.39
2023-03-04 15:17:00,,0821.8,4.97,0.00,22.4,21.9,00.0,31.1,24.2,16.3,-001.7,0010.75,0013.40,0010.44
2023-03-04 15:18:00,,0821.9,5.01,0.00,22.4,21.7,00.0,31.1,24.2,16.3,-001.4,0010.80,0013.45,0010.50
2023-03-04 15:19:00,,0821.8,5.00,0.00,22.4,21.4,00.0,31.1,24.2,16.4,-001.2,0010.88,0013.59,0010.56
2023-03-04 15:20:00,,0821.8,5.01,0.00,22.4,21.3,00.0,31.1,24.1,16.5,-001.1,0010.90,0013.60,0010.60
2023-03-04 15:21:00,,0821.8,5.00,0.00,22.4,21.2,00.0,31.1,24.1,16.4,-001.2,0010.93,0013.60,0010.63
2023-03-04 15:22:00,,0821.8,5.00,0.00,22.4,21.1,00.0,31.1,24.1,16.4,-001.4,0010.98,0013.69,0010.66
2023-03-04 15:23:00,,0821.8,5.00,0.00,22.4,21.0,00.0,31.1,24.1,16.4,-001.1,0011.04,0013.69,0010.71
2023-03-04 15:24:00,,0821.8,5.00,0.00,22.4,20.9,00.0,31.1,24.1,16.2,-001.1,0011.09,0013.48,0010.75
2023-03-04 15:25:00,,0821.8,5.00,0.00,22.4,20.8,00.0,31.1,24.0,16.2,-001.1,0011.10,0013.40,0010.78
2023-03-04 15:26:00,,0821.8,4.99,0.00,22.3,20.8,00.0,31.1,24.0,16.1,-001.4,0011.08,0013.35,0010.78
2023-03-04 15:27:00,,0821.9,5.00,0.00,22.3,20.7,00.0,31.1,24.0,15.9,-001.5,0011.06,0013.29,0010.76
2023-03-04 15:28:00,,0821.8,4.99,0.00,22.3,20.6,00.0,31.1,24.0,15.7,-001.5,0011.02,0013.25,0010.73
2023-03-04 15:29:00,,0822.0,4.99,0.00,22.3,20.6,00.0,31.1,24.0,15.5,-001.8,0011.01,0013.29,0010.69
2023-03-04 15:30:00,,0821.8,5.00,0.00,22.3,20.6,00.0,31.1,24.0,15.3,-002.1,0010.98,0013.21,0010.66
2023-03-04 15:31:00,,0821.8,5.00,0.00,22.3,20.6,00.0,31.1,24.0,15.4,-002.4,0010.97,0013.20,0010.64
2023-03-04 15:32:00,,0821.8,5.01,0.00,22.3,20.6,00.0,31.0,24.0,15.5,-002.4,0010.99,0013.25,0010.63
2023-03-04 15:33:00,,0821.8,5.00,0.00,22.3,20.6,00.0,31.0,24.0,15.4,-002.4,0010.96,0013.18,0010.62
2023-03-04 15:34:00,,0821.8,5.00,0.00,22.2,20.6,00.0,31.0,23.9,15.5,-002.5,0010.93,0013.12,0010.60
2023-03-04 15:35:00,,0821.8,5.00,0.00,22.2,20.6,00.0,31.0,24.0,15.6,-002.5,0010.90,0013.07,0010.57
2023-03-04 15:36:00,,0821.8,4.99,0.00,22.2,20.5,00.0,31.0,24.0,15.5,-002.7,0010.89,0013.05,0010.56
2023-03-04 15:37:00,,0821.7,5.00,0.00,22.2,20.6,00.0,31.0,24.0,15.5,-002.7,0010.92,0013.10,0010.57
2023-03-04 15:38:00,,0821.7,5.02,0.00,22.2,20.9,00.0,31.0,24.0,15.6,-002.6,0010.94,0013.13,0010.60
2023-03-04 15:39:00,,0821.7,5.02,0.00,22.3,22.2,00.0,31.0,24.3,15.5,-002.4,0010.98,0013.19,0010.62
2023-03-04 15:40:00,,0821.7,5.01,0.00,22.5,23.3,00.0,31.0,24.5,15.5,-002.1,0011.00,0013.18,0010.65
2023-03-04 15:41:00,,0821.7,4.98,0.00,22.6,23.1,00.0,31.1,24.6,15.4,-001.8,0011.03,0013.28,0010.68
2023-03-04 15:42:00,,0821.7,5.01,0.00,22.6,22.7,00.0,31.1,24.5,15.5,-001.7,0011.05,0013.33,0010.70
2023-03-04 15:43:00,,0821.7,5.01,0.00,22.6,22.3,00.0,31.2,24.5,15.4,-001.4,0011.04,0013.28,0010.73
2023-03-04 15:44:00,,0821.7,4.99,0.00,22.6,22.0,00.0,31.2,24.4,15.0,-001.4,0011.05,0013.28,0010.74
2023-03-04 15:45:00,,0821.7,5.01,0.00,22.6,21.8,00.0,31.2,24.4,14.9,-001.2,0011.07,0013.34,0010.74
2023-03-04 15:46:00,,0821.7,5.01,0.00,22.6,21.6,00.0,31.2,24.4,14.7,-001.3,0011.09,0013.43,0010.73
2023-03-04 15:47:00,,0821.6,4.99,0.00,22.6,21.5,00.0,31.2,24.4,14.7,-001.2,0011.05,0013.42,0010.71
2023-03-04 15:48:00,,0821.6,5.00,0.00,22.6,21.5,00.0,31.2,24.4,14.6,-001.0,0010.99,0013.35,0010.66
2023-03-04 15:49:00,,0821.6,5.00,0.00,22.6,21.4,00.0,31.3,24.4,14.4,-000.9,0010.94,0013.35,0010.61
2023-03-04 15:50:00,,0821.5,4.99,0.00,22.6,21.4,00.0,31.3,24.4,14.3,-001.0,0010.87,0013.32,0010.54
2023-03-04 15:51:00,,0821.6,5.00,0.00,22.6,21.3,00.0,31.3,24.4,14.2,-001.2,0010.80,0013.33,0010.46
2023-03-04 15:52:00,,0821.6,5.00,0.00,22.6,21.3,00.0,31.3,24.4,14.3,-001.4,0010.71,0013.17,0010.38
2023-03-04 15:53:00,,0821.6,5.01,0.00,22.6,21.3,00.0,31.3,24.4,14.5,-001.4,0010.59,0013.07,0010.28
2023-03-04 15:54:00,,0821.6,5.00,0.00,22.6,21.2,00.0,31.3,24.4,14.4,-001.5,0010.46,0013.17,0010.14
2023-03-04 15:55:00,,0821.6,5.00,0.00,22.6,21.2,00.0,31.3,24.4,14.6,-001.7,0010.37,0013.27,0010.03
2023-03-04 15:56:00,,0821.5,5.00,0.00,22.6,21.2,00.0,31.3,24.4,14.6,-001.8,0010.27,0013.19,0009.94
2023-03-04 15:57:00,,0821.6,5.00,0.00,22.6,21.2,00.0,31.3,24.4,14.9,-001.7,0010.09,0012.99,0009.80
2023-03-04 15:58:00,,0821.6,5.00,0.00,22.6,21.1,00.0,31.3,24.4,14.3,-001.8,0009.95,0012.93,0009.63
2023-03-04 15:59:00,,0821.5,4.99,0.00,22.6,21.0,00.0,31.3,24.4,14.2,-001.8,0009.83,0012.87,0009.48
